Weather Roundup
Issued by NWS

Home | Current Version | Previous Version | Graphics & Text | Print | Product List | Glossary Off
Versions: 1 2 3 4 5 6 7 8 9 10 11 12 13 14 15 16 17 18 19 20 21 22 23 24 25 26 27 28 29 30 31 32 33 34 35 36 37 38 39 40 41 42 43 44 45 46 47 48 49 50

867
NZUS93 KARX 030559
HRRWXR

CURRENT HOURLY OBSERVATIONS ACROSS
MUCH OF THE UPPER MISSISSIPPI VALLEY
NATIONAL WEATHER SERVICE LA CROSSE WI
1200 AM CST SAT DEC 03 2016


...SOUTHEAST MINNESOTA...


CITY           SKY/WX    TMP DP  RH WIND       PRES   REMARKS
ROCHESTER      CLOUDY    28  22  78 W9        30.30S WCI  19
ROCHESTER/MAYO CLOUDY    29  22  74 W5        30.31S WCI  24
WINONA         CLOUDY    32  23  69 W8        30.33S WCI  25
AUSTIN         CLOUDY    28  21  74 NW6       30.30F WCI  22
ALBERT LEA     CLOUDY    32  27  80 NW3       30.30F
DODGE CENTER   CLOUDY    27  21  80 W8        30.30S WCI  18
PRESTON        CLOUDY    28  22  80 W8        30.31S WCI  19
OWATONNA       CLOUDY    28  21  74 W9        30.31S WCI  20
FARIBAULT      CLOUDY    28  21  74 W6        30.31F WCI  22
$$

...ELSEWHERE IN MINNESOTA...


CITY           SKY/WX    TMP DP  RH WIND       PRES   REMARKS
MINNEAPOLIS    CLOUDY    30  23  75 SW10      30.31S WCI  21
INTNL FALLS    CLOUDY    23  19  85 W6        30.25  WCI  16
DULUTH         CLOUDY    27  23  85 NW6       30.23S WCI  20
RED WING       CLOUDY    30  21  69 W8        30.31R WCI  23
REDWOOD FALLS  CLOUDY    29  20  69 NW3       30.32R
MANKATO        CLOUDY    29  22  75 W5        30.32  WCI  24
WORTHINGTON    CLOUDY    27  22  81 NW8       30.30  WCI  19
FAIRMONT       CLOUDY    30  21  69 W8        30.31F WCI  22
$$

...SOUTHWEST WISCONSIN...


CITY           SKY/WX    TMP DP  RH WIND       PRES   REMARKS
LA CROSSE      CLOUDY    33  21  61 W6        30.32S WCI  28
PRAIRIE DU CHI CLOUDY    32  21  65 NW3       30.34S
BOSCOBEL       CLOUDY    33  23  66 SW3       30.33F
LONE ROCK      NOT AVBL
PLATTEVILLE    CLOUDY    31  25  77 NW5       30.31F WCI  26
FORT MC COY    CLOUDY    32  24  72 W5        30.31F WCI  27
MAUSTON-NEW LI CLOUDY    32  25  75 W5        30.30S WCI  27
VIROQUA        CLOUDY    29  22  75 W5        30.29S WCI  24
WIS DELLS      CLOUDY    31  23  73 W5        30.30S WCI  26
$$

...ELSEWHERE IN WISCONSIN...


CITY           SKY/WX    TMP DP  RH WIND       PRES   REMARKS
MILWAUKEE      CLOUDY    33  22  63 VRB7      30.31R WCI  27
MADISON        CLOUDY    30  22  72 W6        30.31S WCI  24
GREEN BAY      CLOUDY    35  29  78 W8        30.27S WCI  29
EAU CLAIRE     NOT AVBL
BLACK RVR FLS  CLOUDY    32  23  68 CALM      30.29F
MEDFORD        CLOUDY    27  22  82 NW5       30.25S WCI  22
WAUSAU         CLOUDY    29  22  75 W7        30.26R WCI  22
WIS RAPIDS     CLOUDY    31  24  75 W6        30.30S WCI  25
MARSHFIELD     CLOUDY    29  23  78 W8        30.26S WCI  21
RICE LAKE      CLOUDY    30  24  78 CALM      30.29S
$$

...NORTHEAST IOWA...


CITY           SKY/WX    TMP DP  RH WIND       PRES   REMARKS
WATERLOO       CLOUDY    31  22  69 NW7       30.33S WCI  24
DUBUQUE        CLOUDY    30  23  75 N5        30.32S WCI  25
DECORAH        CLOUDY    28  21  74 VRB5      30.30F WCI  23
MASON CITY     CLOUDY    29  23  78 CALM      30.33S
CHARLES CITY   CLOUDY    30  25  80 NW6       30.32F WCI  24
OELWEIN        CLOUDY    30  27  86 NW10      30.32F WCI  21
$$

...ELSEWHERE IN IOWA...


CITY           SKY/WX    TMP DP  RH WIND       PRES   REMARKS
DES MOINES     CLOUDY    37  29  72 CALM      30.34S
IOWA CITY      CLOUDY    33  26  75 NW3       30.35F
FORT DODGE     CLOUDY    32  25  74 CALM      30.32F
MARSHALLTOWN   CLOUDY    32  27  81 N3        30.33S
CEDAR RAPIDS   CLOUDY    31  29  92 W5        30.33R WCI  26
$$

...NORTHERN ILLINOIS...


CITY           SKY/WX    TMP DP  RH WIND       PRES   REMARKS
CHICAGO-OHARE  CLOUDY    34  23  64 W7        30.30F WCI  28
CHICAGO-MIDWAY CLOUDY    35  21  56 W8        30.31F WCI  29
MOLINE         MOCLDY    34  25  69 N8        30.32F WCI  27
ROCKFORD       CLOUDY    32  23  69 NW7       30.33F WCI  26
PEORIA         CLOUDY    36  27  69 N3        30.34S
$$

NOTE: "FAIR" INDICATES FEW OR NO CLOUDS BELOW 12,000 FEET WITH NO
SIGNIFICANT WEATHER AND/OR OBSTRUCTIONS TO VISIBILITY. WIND
SPEEDS ARE IN MILES-PER-HOUR.




USA.gov is the U.S. government's official web portal to all federal, state and local government web resources and services.